User: anonymous   Login
Location: D�derode
(51.8092°N, 10.1065°E)
Time: 08:28:34
(UTC+00:00)
Language:

PSLV R/B - Orbit

View from above orbital plane
View from above orbital plane
View from above satellite
View from above satellite

Ground track
Ground track

The orbit data is extracted from the following two-line orbital elements,

1 26960U 01049D   21065.78397823  .00000461  00000-0  33052-4 0  9996
2 26960  97.8247  69.6562 0052930 227.9769 131.6948 15.08593379 58787
Epoch (UTC): 06 March 2021 18:48:55
Eccentricity: 0.0052930
inclination: 97.8247°
perigee height: 504 km
apogee height: 577 km
right ascension of ascending node: 69.6562°
argument of perigee: 227.9769°
revolutions per day: 15.08593379
mean anomaly at epoch: 131.6948°
orbit number at epoch: 5878

The dashed part of the orbit path shows where the satellite is in the earth's shadow,  

DLR